Regional Weather Roundup
Issued by NWS

Home | Current Version | Previous Version | Text Only | Print | Product List | Glossary On
Versions: 1 2 3 4 5 6 7 8 9 10 11 12 13 14 15 16 17 18 19 20 21 22 23 24 25 26 27 28 29 30 31 32 33 34 35 36 37 38 39 40 41 42 43 44 45 46 47 48 49 50
000
ASUS43 KBIS 220720
RWRND

NORTH DAKOTA REGIONAL WEATHER ROUNDUP
NATIONAL WEATHER SERVICE BISMARCK ND
200 AM CDT FRI AUG 22 2014

NOTE: "FAIR" INDICATES FEW OR NO CLOUDS BELOW 12,000 FEET WITH NO
SIGNIFICANT WEATHER AND/OR OBSTRUCTIONS TO VISIBILITY.


NDZ001>003-009>011-017-220800-
NORTHWEST NORTH DAKOTA

CITY           SKY/WX    TMP DP  RH WIND       PRES   REMARKS
WILLISTON      CLOUDY    63  59  87 N7        30.03F
MINOT          CLOUDY    64  61  90 N12       29.99R
MINOT AFB      DRIZZLE   63  63 100 N13G20    30.00R FOG
$$

NDZ018>021-031>035-040>046-220800-
SOUTHWEST NORTH DAKOTA

CITY           SKY/WX    TMP DP  RH WIND       PRES   REMARKS
BISMARCK       CLOUDY    68  64  87 N3        29.99R
DICKINSON      RAIN      62  60  93 E8        30.00F FOG
GARRISON         N/A     64  62  93 N7        29.99R
HETTINGER ARPT HVY RAIN  61  58  90 CALM      30.06R FOG
$$

NDZ004>008-012>016-024-026-027-054-220800-
NORTHEAST NORTH DAKOTA

CITY           SKY/WX    TMP DP  RH WIND       PRES   REMARKS
GRAND FORKS    CLOUDY    68  67  96 N8        29.88S
GRND FRKS AFB  CLOUDY    68  68 100 N6        29.90S
DEVILS LAKE    CLOUDY    66  61  82 N10       29.93S
$$

NDZ022-023-025-028>030-036>039-047>053-220800-
SOUTHEAST NORTH DAKOTA

CITY           SKY/WX    TMP DP  RH WIND       PRES   REMARKS
FARGO          FOG       66  65  96 CALM      29.88S VSB 1/2
JAMESTOWN      CLEAR     65  63  93 N6        29.92R
$$




USA.gov is the U.S. government's official web portal to all federal, state and local government web resources and services.